EW6288 Weather Reports


time (UTC)temp
C
wind
direction
speed
KPH
gust
KPH
rain 1hr
cm
rain 24hr
cm
rain mn
cm
humidity
%
barometer
mb
20260504220746 26 187 3.2 14.5 0.00 0.00 0.00 68 1011.2
20260504220247 26 167 3.2 11.3 0.00 0.00 0.00 68 1011.3
20260504215736 26 206 3.2 11.3 0.00 0.00 0.00 68 1011.3
20260504215511 26 169 3.2 11.3 0.00 0.00 0.00 65 1011.3
20260504214739 26 157 3.2 11.3 0.00 0.00 0.00 66 1011.3
20260504214238 26 105 3.2 11.3 0.00 0.00 0.00 65 1011.4
20260504213737 26 209 3.2 11.3 0.00 0.00 0.00 67 1011.4
20260504213238 26 125 3.2 11.3 0.00 0.00 0.00 66 1011.5
20260504212737 26 82 3.2 12.9 0.00 0.00 0.00 65 1011.5
20260504212238 27 165 3.2 14.5 0.00 0.00 0.00 65 1011.6
20260504212010 27 138 3.2 14.5 0.00 0.00 0.00 64 1011.5
20260504211859 27 159 3.2 11.3 0.00 0.00 0.00 64 1011.6
20260504210739 27 144 3.2 16.1 0.00 0.00 0.00 63 1011.6
20260504210238 27 218 4.8 16.1 0.00 0.00 0.00 65 1011.7
20260504205738 27 128 3.2 11.3 0.00 0.00 0.00 65 1011.8
20260504205237 27 136 3.2 8.0 0.00 0.00 0.00 63 1012.0
20260504204736 27 208 4.8 9.7 0.00 0.00 0.00 64 1012.0
20260504204506 27 193 4.8 11.3 0.00 0.00 0.00 63 1012.0
20260504203733 27 156 4.8 11.3 0.00 0.00 0.00 62 1012.0
20260504203236 27 159 4.8 16.1 0.00 0.00 0.00 63 1012.0
20260504202734 27 141 3.2 16.1 0.00 0.00 0.00 63 1012.2
20260504202230 27 140 4.8 12.9 0.00 0.00 0.00 64 1012.2
20260504201729 27 132 4.8 12.9 0.00 0.00 0.00 63 1012.4
20260504201230 27 208 3.2 11.3 0.00 0.00 0.00 62 1012.5
20260504200729 26 128 3.2 16.1 0.00 0.00 0.00 63 1012.5
20260504200230 27 180 4.8 16.1 0.00 0.00 0.00 63 1012.7
20260504195724 27 152 4.8 16.1 0.00 0.00 0.00 64 1012.7
20260504195226 27 194 4.8 16.1 0.00 0.00 0.00 61 1012.8
20260504194724 27 200 4.8 16.1 0.00 0.00 0.00 62 1012.8
20260504194226 27 196 4.8 16.1 0.00 0.00 0.00 61 1012.8
20260504193722 27 93 4.8 16.1 0.00 0.00 0.00 62 1013.0
20260504193225 27 136 3.2 16.1 0.00 0.00 0.00 61 1012.9
20260504192950 27 138 4.8 16.1 0.00 0.00 0.00 61 1012.9
20260504192219 27 144 3.2 14.5 0.00 0.00 0.00 61 1013.1
20260504191718 27 138 4.8 12.9 0.00 0.00 0.00 59 1013.2
20260504191215 27 167 3.2 12.9 0.00 0.00 0.00 61 1013.1
20260504190719 27 171 4.8 12.9 0.00 0.00 0.00 62 1013.4
20260504190715 27 163 3.2 11.3 0.00 0.00 0.00 64 1013.2
20260504185715 26 163 4.8 12.9 0.00 0.00 0.00 62 1013.3
20260504185211 27 161 4.8 14.5 0.00 0.00 0.00 61 1013.4
20260504184710 27 207 4.8 14.5 0.00 0.00 0.00 61 1013.5
20260504184210 27 121 4.8 14.5 0.00 0.00 0.00 62 1013.6
20260504183940 27 182 4.8 14.5 0.00 0.00 0.00 60 1013.6
20260504183206 27 102 4.8 14.5 0.00 0.00 0.00 64 1013.5
20260504182709 27 195 3.2 16.1 0.00 0.00 0.00 62 1013.4
20260504182209 27 99 3.2 16.1 0.00 0.00 0.00 64 1013.6
20260504181708 27 140 4.8 16.1 0.00 0.00 0.00 62 1013.6
20260504181437 27 155 4.8 17.7 0.00 0.00 0.00 60 1013.7
20260504181324 27 165 3.2 17.7 0.00 0.00 0.00 62 1013.9
20260504180201 26 180 4.8 17.7 0.00 0.00 0.00 64 1014.0
20260504175700 26 146 4.8 17.7 0.00 0.00 0.00 63 1014.1
20260504175200 26 144 4.8 16.1 0.00 0.00 0.00 63 1014.1
20260504174701 26 128 3.2 12.9 0.00 0.00 0.00 64 1014.1
20260504174432 26 140 3.2 12.9 0.00 0.00 0.00 63 1014.3
20260504173658 26 165 4.8 12.9 0.00 0.00 0.00 62 1014.2
20260504173427 26 166 3.2 12.9 0.00 0.00 0.00 61 1014.2
20260504172656 26 150 3.2 9.7 0.00 0.00 0.00 62 1014.4
20260504172154 26 90 4.8 16.1 0.00 0.00 0.00 62 1014.5
20260504171658 26 152 4.8 16.1 0.00 0.00 0.00 64 1014.7
20260504171152 26 5 4.8 16.1 0.00 0.00 0.00 62 1014.7
20260504170652 26 134 4.8 16.1 0.00 0.00 0.00 65 1014.8
20260504170150 26 343 4.8 14.5 0.00 0.00 0.00 62 1014.8
20260504160142 25 160 3.2 17.7 0.00 0.00 0.00 68 1015.7
20260504151130 22 136 6.4 17.7 0.00 0.00 0.00 73 1015.7
20260504150628 22 121 4.8 12.9 0.00 0.00 0.00 73 1015.7
20260504150401 22 142 3.2 11.3 0.00 0.00 0.00 74 1015.6
20260504141125 19 152 3.2 16.1 0.00 0.00 0.00 80 1015.8
20260504140620 18 125 1.6 8.0 0.00 0.00 0.00 81 1015.7
20260504140123 18 145 3.2 11.3 0.00 0.00 0.00 82 1015.6
20260504140117 18 137 3.2 11.3 0.00 0.00 0.00 82 1015.6
20260504130611 16 98 1.6 8.0 0.00 0.00 0.00 83 1015.7
20260504130111 16 119 0.0 3.2 0.00 0.00 0.00 83 1015.6
20260504120107 15 154 0.0 0.0 0.00 0.00 0.00 80 1015.4
20260504110601 16 154 0.0 0.0 0.00 0.00 0.00 80 1015.3
20260504110104 16 154 0.0 1.6 0.00 0.00 0.00 80 1015.2
20260504100551 16 154 0.0 0.0 0.00 0.00 0.00 78 1015.5
20260504081520 16 154 0.0 1.6 0.00 0.00 0.00 75 1016.1
20260504081018 16 154 0.0 0.0 0.00 0.00 0.00 75 1016.2
20260504080516 17 154 0.0 0.0 0.00 0.00 0.00 75 1016.4
20260504050711 18 146 0.0 1.6 0.00 0.00 0.00 68 1018.1
20260504050209 18 146 0.0 1.6 0.00 0.00 0.00 68 1018.1
20260504045439 18 146 0.0 1.6 0.00 0.00 0.00 67 1018.1
20260504044939 18 146 0.0 1.6 0.00 0.00 0.00 67 1018.2
20260504044440 18 146 0.0 1.6 0.00 0.00 0.00 67 1018.2
20260504043938 19 146 0.0 1.6 0.00 0.00 0.00 66 1018.2
20260504043439 19 146 0.0 1.6 0.00 0.00 0.00 66 1018.3
20260504042938 19 146 0.0 1.6 0.00 0.00 0.00 66 1018.2
20260504042439 19 146 0.0 4.8 0.00 0.00 0.00 65 1018.3
20260504041937 19 146 0.0 4.8 0.00 0.00 0.00 65 1018.3
20260504041441 19 146 0.0 4.8 0.00 0.00 0.00 65 1018.3
20260504040939 20 146 0.0 4.8 0.00 0.00 0.00 65 1018.3
20260504040710 20 140 0.0 1.6 0.00 0.00 0.00 65 1018.2
20260504035938 20 140 0.0 4.8 0.00 0.00 0.00 64 1018.2
20260504035437 20 140 0.0 4.8 0.00 0.00 0.00 64 1018.2
20260504034937 20 140 0.0 4.8 0.00 0.00 0.00 64 1018.2
20260504034437 20 140 0.0 4.8 0.00 0.00 0.00 64 1018.3
20260504034207 20 140 0.0 1.6 0.00 0.00 0.00 63 1018.3
20260504033707 20 140 0.0 4.8 0.00 0.00 0.00 63 1018.3
20260504033208 20 140 1.6 4.8 0.00 0.00 0.00 63 1018.3
20260504032707 20 140 1.6 6.4 0.00 0.00 0.00 63 1018.3
20260504031934 20 162 1.6 6.4 0.00 0.00 0.00 63 1018.3
20260504031434 21 162 0.0 6.4 0.00 0.00 0.00 62 1018.2
20260504030935 21 168 0.0 3.2 0.00 0.00 0.00 62 1018.3
20260504030435 21 168 1.6 6.4 0.00 0.00 0.00 62 1018.2
20260504025932 21 168 1.6 6.4 0.00 0.00 0.00 62 1018.1
20260504025433 21 166 1.6 6.4 0.00 0.00 0.00 60 1018.0
20260504024934 21 180 0.0 8.0 0.00 0.00 0.00 59 1018.0
20260504024929 21 102 1.6 8.0 0.00 0.00 0.00 59 1018.0
20260504023926 21 173 1.6 4.8 0.00 0.00 0.00 59 1018.0
20260504023427 21 173 1.6 4.8 0.00 0.00 0.00 58 1018.0
20260504023200 22 173 1.6 6.4 0.00 0.00 0.00 58 1018.0
20260504022657 22 173 1.6 6.4 0.00 0.00 0.00 58 1018.1
20260504022159 22 148 1.6 11.3 0.00 0.00 0.00 58 1018.0
20260504021427 22 155 3.2 11.3 0.00 0.00 0.00 57 1017.9
20260504021157 22 138 3.2 11.3 0.00 0.00 0.00 56 1017.8
20260504020426 22 136 3.2 11.3 0.00 0.00 0.00 55 1017.8
20260504020157 22 134 3.2 17.7 0.00 0.00 0.00 55 1017.9
20260504015427 22 163 3.2 17.7 0.00 0.00 0.00 54 1017.9
20260504015155 22 169 4.8 19.3 0.00 0.00 0.00 54 1017.9
20260504014424 22 163 4.8 19.3 0.00 0.00 0.00 53 1017.8
20260504014158 22 0 3.2 9.7 0.00 0.00 0.00 53 1017.7
20260504013652 23 0 3.2 16.1 0.00 0.00 0.00 53 1017.7
20260504012926 23 0 4.8 16.1 0.00 0.00 0.00 52 1017.7
20260504012422 23 0 3.2 17.7 0.00 0.00 0.00 52 1017.6
20260504012418 23 0 3.2 12.9 0.00 0.00 0.00 52 1017.7
20260504011418 23 0 3.2 17.7 0.00 0.00 0.00 51 1017.6
20260504010916 23 0 3.2 12.9 0.00 0.00 0.00 51 1017.5
20260504010414 23 0 3.2 12.9 0.00 0.00 0.00 51 1017.6
20260504010147 23 0 3.2 12.9 0.00 0.00 0.00 51 1017.6
20260504005414 23 0 4.8 12.9 0.00 0.00 0.00 50 1017.5
20260504004915 23 0 3.2 9.7 0.00 0.00 0.00 51 1017.5
20260504004646 23 0 3.2 9.7 0.00 0.00 0.00 50 1017.6
20260504003913 23 0 3.2 9.7 0.00 0.00 0.00 50 1017.6
20260504003411 23 0 3.2 9.7 0.00 0.00 0.00 49 1017.5
20260504002909 24 0 3.2 9.7 0.00 0.00 0.00 50 1017.4
20260504002408 24 0 1.6 9.7 0.00 0.00 0.00 51 1017.5
20260504001904 24 0 1.6 12.9 0.00 0.00 0.00 51 1017.5
20260504001402 24 0 1.6 12.9 0.00 0.00 0.00 51 1017.5
20260504001135 24 131 3.2 12.9 0.00 0.00 0.00 49 1017.3
20260504000401 24 109 4.8 12.9 0.00 0.00 0.00 49 1017.5
20260504000128 24 146 3.2 14.5 0.00 0.00 0.00 48 1017.5
20260503235359 24 145 3.2 14.5 0.00 0.00 0.00 49 1017.6
20260503234858 24 163 4.8 17.7 0.00 0.00 0.00 48 1017.6
20260503234357 24 136 4.8 17.7 0.00 0.00 0.00 51 1017.5
20260503233857 25 134 4.8 17.7 0.00 0.00 0.00 51 1017.6
20260503233357 25 133 4.8 17.7 0.00 0.00 0.00 48 1017.7
20260503232858 25 130 3.2 14.5 0.00 0.00 0.00 47 1017.7
20260503232353 25 178 4.8 19.3 0.00 0.00 0.00 47 1017.8
20260503231854 25 140 4.8 19.3 0.00 0.00 0.00 46 1017.8
20260503231351 25 121 4.8 12.9 0.00 0.00 0.00 47 1017.8
20260503230852 25 126 4.8 14.5 0.00 0.00 0.00 46 1017.7
20260503230353 25 88 4.8 14.5 0.00 0.00 0.00 48 1017.6
20260503230122 25 170 4.8 14.5 0.00 0.00 0.00 46 1017.7
20260503225348 25 142 6.4 22.5 0.00 0.00 0.00 47 1017.8
20260503224844 25 160 6.4 22.5 0.00 0.00 0.00 45 1017.9
20260503224344 25 136 3.2 9.7 0.00 0.00 0.00 45 1017.9
20260503223842 25 150 1.6 9.7 0.00 0.00 0.00 43 1017.9
20260503223341 25 142 1.6 11.3 0.00 0.00 0.00 45 1017.9
20260503222841 25 144 3.2 11.3 0.00 0.00 0.00 45 1018.0
20260503222336 25 141 3.2 11.3 0.00 0.00 0.00 43 1018.2
20260503221835 26 132 3.2 11.3 0.00 0.00 0.00 37 1018.3
20260503221335 26 164 1.6 14.5 0.00 0.00 0.00 39 1018.3